星链-11748 (STARLINK-11748)

导读

STARLINK-11748是美国于2025年6月13日发射的星链系列卫星,归属SpaceX星链互联网星座项目。星链项目旨在构建全球卫星互联网络,为全球偏远地区、海洋空域等场景提供高速低延迟宽带服务,该卫星入轨后将进一步扩充星链星座规模,助力星座组网覆盖能力提升。

基本信息
目录编号:
64373
目录名称:
STARLINK-11748
国际标识:
2025-127D
轨道中心:
EARTH
卫星名称:
星链-11748
卫星全名:
星链-11748 (STARLINK-11748)
卫星状态:
在轨 (已飞行366 天)
发射日期:
2025-06-13 UTC
国别 :
美国 (US)
星等 :
--
轨道信息
数据来源 国际轨道数据
星历时间: 2026-06-14T04:49:02+0800
18小时前
查看轨道信息
半长轴: 6733.922km
偏心率: 0.0001584
轨道倾角: 42.998°
近地点辐角 316.957°
升交点赤经 225.256°
平近点角 43.117°
近地点: 354.718km
远地点: 356.852km
周期: 91.656分钟
每日圈数: 15.710888
详细信息
固有亮度:
5
最大亮度:
2.5
卫星平台:
Starlink V1.0
覆盖范围:
全球
运营商:
太空探索技术公司
运营商所在国:
美国
制造商(研发单位):
太空探索技术公司
制造商所在国:
美国
使用方式:
暂无
卫星简介
Starlink 计划是 SpaceX 推出的全球卫星互联网项目,通过发射低轨道卫星,为全球尤其是偏远地区提供高速、低延迟的互联网服务。自 2019 年起,Starlink 已部署数千颗卫星,旨在缩小全球数字鸿沟,推动互联网普及。该项目还为军事、航空等行业提供通信支持,带来广泛经济效益。
2D轨道图
3D轨道图
轨道高度分析图
轨道倾角分析图
轨道综合分析图
查看轨道综合分析图